UAL718 MMMX-KSFO

Flight info

Callsign UAL718
Flight time N/A
Altitude 36000
Route ATURO2A ATURO UT134 ZCL UT10 PPE J93 AXASA DCT ASUTA J93 PDZ DCT COREZ DCT MAKRS DCT SERFR SERFR4
Aircraft A320/M-SDE3FGHIRWY/LB1

Departure

Time 2026-05-06 02:53
Airport Mexico City Benito Juárez International Airport (MMMX)

Arrival

Time N/A
Airport San Francisco International Airport (KSFO)
Time Latitude Longitude Altitude Speed Heading
2026-05-06 02:32 19.43698 -99.07757 7423 ft 0 kts 346°
2026-05-06 02:44 19.43679 -99.07752 7427 ft 4 kts 340°
2026-05-06 02:44 19.43655 -99.07741 7425 ft 4 kts 325°
2026-05-06 02:45 19.43642 -99.07730 7422 ft 0 kts 312°
2026-05-06 02:45 19.43637 -99.07724 7421 ft 1 kts 258°
2026-05-06 02:45 19.43636 -99.07721 7420 ft 0 kts 239°
2026-05-06 02:47 19.43621 -99.07748 7447 ft 8 kts 239°
2026-05-06 02:48 19.43580 -99.07821 7448 ft 15 kts 239°
2026-05-06 02:48 19.43523 -99.07923 7448 ft 16 kts 239°
2026-05-06 02:48 19.43465 -99.08025 7449 ft 16 kts 238°
2026-05-06 02:48 19.43404 -99.08129 7448 ft 17 kts 237°
2026-05-06 02:49 19.43336 -99.08236 7445 ft 18 kts 235°
2026-05-06 02:49 19.43259 -99.08347 7443 ft 19 kts 233°
2026-05-06 02:49 19.43216 -99.08471 7446 ft 17 kts 242°
2026-05-06 02:49 19.43155 -99.08580 7446 ft 17 kts 238°
2026-05-06 02:50 19.43091 -99.08690 7445 ft 18 kts 240°
2026-05-06 02:50 19.43029 -99.08804 7446 ft 18 kts 239°
2026-05-06 02:50 19.42965 -99.08916 7446 ft 18 kts 239°
2026-05-06 02:50 19.42907 -99.09011 7445 ft 13 kts 230°
2026-05-06 02:51 19.42862 -99.09044 7439 ft 6 kts 207°
2026-05-06 02:51 19.42860 -99.09046 7439 ft 0 kts 207°
2026-05-06 02:51 19.42848 -99.09052 7438 ft 7 kts 206°
2026-05-06 02:51 19.42780 -99.09085 7434 ft 6 kts 197°
2026-05-06 02:52 19.42758 -99.09074 7434 ft 4 kts 127°
2026-05-06 02:52 19.42768 -99.09026 7433 ft 10 kts 63°
2026-05-06 02:52 19.42811 -99.08946 7434 ft 22 kts 59°
2026-05-06 02:52 19.43019 -99.08576 7432 ft 94 kts 59°
2026-05-06 02:53 19.43460 -99.07800 7433 ft 149 kts 59°
2026-05-06 02:53 19.44079 -99.06712 7471 ft 189 kts 58°
2026-05-06 02:53 19.44749 -99.05537 8153 ft 186 kts 59°
2026-05-06 02:53 19.45414 -99.04354 9029 ft 187 kts 60°
2026-05-06 02:54 19.46074 -99.03174 9384 ft 182 kts 60°
2026-05-06 02:54 19.46702 -99.02047 9652 ft 174 kts 60°
2026-05-06 02:54 19.47326 -99.00927 9924 ft 180 kts 60°
2026-05-06 02:54 19.47984 -98.99749 10280 ft 190 kts 60°
2026-05-06 02:55 19.48680 -98.98506 10594 ft 202 kts 59°
2026-05-06 02:55 19.49421 -98.97188 10915 ft 215 kts 60°
2026-05-06 02:55 19.50416 -98.95949 11194 ft 231 kts 33°
2026-05-06 02:55 19.51982 -98.95394 11526 ft 251 kts 359°
2026-05-06 02:56 19.53750 -98.95766 11956 ft 269 kts 345°
2026-05-06 02:56 19.55619 -98.96355 12291 ft 292 kts 343°
2026-05-06 02:56 19.57610 -98.97011 12609 ft 313 kts 344°
2026-05-06 02:56 19.59758 -98.97722 12938 ft 334 kts 343°
2026-05-06 02:57 19.62037 -98.98471 13268 ft 353 kts 343°
2026-05-06 02:57 19.64444 -98.99256 13604 ft 370 kts 343°
2026-05-06 02:57 19.66931 -99.00063 14127 ft 377 kts 343°
2026-05-06 02:57 19.69459 -99.00877 14712 ft 381 kts 343°
2026-05-06 02:58 19.72005 -99.01693 15122 ft 384 kts 343°
2026-05-06 02:58 19.74578 -99.02515 15545 ft 387 kts 344°
2026-05-06 02:58 19.77169 -99.03343 15994 ft 390 kts 344°
2026-05-06 02:58 19.79775 -99.04180 16423 ft 393 kts 344°
2026-05-06 02:59 19.82402 -99.05028 16869 ft 395 kts 344°
2026-05-06 02:59 19.85042 -99.05879 17281 ft 398 kts 344°
2026-05-06 02:59 19.87709 -99.06740 17707 ft 401 kts 344°
2026-05-06 02:59 19.90396 -99.07606 18128 ft 404 kts 344°
2026-05-06 03:00 19.93094 -99.08474 18555 ft 407 kts 344°
2026-05-06 03:00 19.95814 -99.09352 18910 ft 410 kts 344°
2026-05-06 03:00 19.98531 -99.10230 19221 ft 414 kts 344°
2026-05-06 03:00 20.01294 -99.11123 19595 ft 417 kts 344°
2026-05-06 03:01 20.04083 -99.12024 19961 ft 420 kts 343°
2026-05-06 03:01 20.06890 -99.12930 20339 ft 422 kts 343°
2026-05-06 03:01 20.09707 -99.13839 20701 ft 425 kts 343°
2026-05-06 03:01 20.12554 -99.14757 21069 ft 427 kts 343°
2026-05-06 03:02 20.15409 -99.15681 21454 ft 430 kts 343°
2026-05-06 03:02 20.18289 -99.16615 21817 ft 433 kts 343°
2026-05-06 03:02 20.21141 -99.17541 22176 ft 435 kts 343°
2026-05-06 03:02 20.24027 -99.18478 22512 ft 438 kts 343°
2026-05-06 03:03 20.26862 -99.19397 22843 ft 440 kts 343°
2026-05-06 03:03 20.29716 -99.20322 23162 ft 443 kts 343°
2026-05-06 03:03 20.32677 -99.21280 23484 ft 446 kts 343°
2026-05-06 03:03 20.35656 -99.22241 23751 ft 448 kts 343°
2026-05-06 03:04 20.38651 -99.23207 24009 ft 450 kts 343°
2026-05-06 03:04 20.41643 -99.24198 24282 ft 452 kts 340°
2026-05-06 03:04 20.44513 -99.25577 24553 ft 453 kts 330°